Regional Weather Roundup
Issued by NWS

Home | Current Version | Previous Version | Text Only | Print | Product List | Glossary Off
Versions: 1 2 3 4 5 6 7 8 9 10 11 12 13 14 15 16 17 18 19 20 21 22 23 24 25 26 27

000
ASUS45 KBOU 271307
RWRCO

WEATHER ROUNDUP FOR COLORADO
NATIONAL WEATHER SERVICE DENVER/BOULDER CO
700 AM MDT SAT MAY 27 2017

NOTE: "FAIR" INDICATES FEW OR NO CLOUDS BELOW 12000 FEET WITH NO
SIGNIFICANT WEATHER AND/OR OBSTRUCTIONS TO VISIBILITY.

COZ001>005-013-030-031-271400-
...NORTHWEST COLORADO...

CITY           SKY/WX    TMP DP  RH WIND       PRES   REMARKS
CRAIG          PTSUNNY   43  39  86 E8        30.13R
HAYDEN         CLOUDY    39  34  81 SE8       30.15R
MEEKER         PTSUNNY   44  41  89 NE6       30.12R
RABBIT EARS PA NOT AVBL
STEAMBOAT SPGS NOT AVBL
WALDEN         NOT AVBL
$$

COZ006>008-011-271400-
...WEST CENTRAL VALLEYS...

CITY           SKY/WX    TMP DP  RH WIND       PRES   REMARKS
GRAND JUNCTION PTSUNNY   56  35  45 E5        30.05R
MONTROSE       PTSUNNY   49  33  54 S9        30.10S
EAGLE          CLOUDY    45  39  81 CALM      30.15R
RIFLE          FAIR      50  39  66 CALM      30.09S
DELTA          CLOUDY    57  37  47 W6        30.06R
NUCLA          FAIR      46  27  46 E6        30.12R
$$

COZ017>023-064>068-271400-
...SOUTHWEST COLORADO...

CITY           SKY/WX    TMP DP  RH WIND       PRES   REMARKS
DURANGO        FAIR      39  22  50 CALM      30.10R
CORTEZ         FAIR      48  31  51 NE5       30.09R
PAGOSA SPRINGS FAIR      43  17  34 NE5       30.15R
TELLURIDE      FAIR      42  23  47 SE6       30.22R
WOLF CREEK PAS NOT AVBL
$$

COZ009-010-012-014-032>034-037-058>063-271400-
...CENTRAL COLORADO...

CITY           SKY/WX    TMP DP  RH WIND       PRES   REMARKS
ASPEN          CLOUDY    45  37  73 CALM      30.14R
BUENA VISTA    FAIR      45  25  45 CALM      30.10R
COPPER MTN     NOT AVBL
BERTHOUD PASS  NOT AVBL
COTTONWOOD PAS NOT AVBL
GUNNISON       FAIR      36  25  64 N5        30.15R
KREMMLING      NOT AVBL
LEADVILLE      FAIR      38  27  64 N12       30.16R
SALIDA         NOT AVBL
SUNLIGHT       NOT AVBL
WILKERSON PASS NOT AVBL
$$

COZ069>075-271400-
...SAN LUIS VALLEY/SANGRE DE CRISTO MOUNTAINS...

CITY           SKY/WX    TMP DP  RH WIND       PRES   REMARKS
ALAMOSA        FAIR      42  22  44 SW6       30.10R
DEL NORTE      NOT AVBL
LA VETA PASS   NOT AVBL
SAGUACHE       NOT AVBL
$$

COZ035-036-038>040-271400-
...NORTHERN COLORADO FRONT RANGE...

CITY           SKY/WX    TMP DP  RH WIND       PRES   REMARKS
DENVER INTL AP FAIR      50  44  80 SW3       30.06R
DMNS CITY PARK   N/A     52  44  74 E9        30.06S
AURORA         MOSUNNY   47  46  96 CALM      30.07R
FRONT RANGE AP MOSUNNY   50  46  87 W5        30.07
ERIE MUNI ARPT NOT AVBL
BOULDER MUN AP NOT AVBL
CENTENNIAL     FAIR      49  44  83 CALM      30.07R
BROOMFIELD     PTSUNNY   50  45  81 VRB3      30.06S
FORT COLLINS   LGT RAIN  49  47  93 SW8       30.06R
LONGMONT       NOT AVBL
$$

COZ041-046-047-076>085-087-088-271400-
...PIKES PEAK/PALMER DIVIDE AND SOUTHERN FOOTHILLS...

CITY           SKY/WX    TMP DP  RH WIND       PRES   REMARKS
COLO. SPRINGS  FAIR      51  40  65 NW10      30.08R
A. F. ACADEMY  FAIR      45  41  84 N5        30.08R
SCHRIEVER AFB  FAIR      48  40  71 N14G20    30.07R
CHEYENNE MTN   FAIR      51  35  53 NW7       30.04R
ELLICOTT       FAIR     N/A N/A N/A N9        30.05R
FALCON         FAIR      47  38  68 N9        30.10R
FORT CARSON    FAIR      51  41  67 CALM      30.06R
LIMON          PTSUNNY   48  45  89 NW14      30.05R
MONUMENT HILL  NOT AVBL
CANON CITY     NOT AVBL
WALSENBURG     CLOUDY    48  45  87 SW5       30.09R
TRINIDAD       CLOUDY    51  42  71 NW10      30.08R
$$

COZ042>045-048>051-090-091-271400-
...NORTHEAST COLORADO...

CITY           SKY/WX    TMP DP  RH WIND       PRES   REMARKS
GREELEY ARPT   CLOUDY    52  45  77 CALM      30.05S
AKRON          CLOUDY    50  46  86 NW13      30.03R
BURLINGTON     CLOUDY    53  50  89 N14       29.99R
WRAY           FAIR      54  50  87 N10       29.98R
YUMA           NOT AVBL
STERLING       NOT AVBL
HOLYOKE        NOT AVBL
FORT MORGAN    PTSUNNY   47  46  95 W6        30.04R FOG
$$

COZ086-089-092>099-271400-
...SOUTHEAST COLORADO...

CITY           SKY/WX    TMP DP  RH WIND       PRES   REMARKS
PUEBLO         PTSUNNY   55  43  63 W5        30.03R
LA JUNTA       CLOUDY    57  48  72 N14       30.01R
LAMAR          CLOUDY    59  50  72 N5        29.95R
SPRINGFIELD      N/A     51  50  96 N18       29.97R
$$




USA.gov is the U.S. government's official web portal to all federal, state and local government web resources and services.